Weather Roundup
Issued by NWS Corpus Christi, TX

Home | Current Version | Previous Version | Text Only | Print | Product List | Glossary On
Versions: 1 2 3 4 5 6 7 8 9 10 11 12 13 14 15 16 17 18 19 20 21 22 23 24 25 26 27 28 29 30 31 32 33 34 35 36 37 38 39 40 41 42 43 44 45 46 47 48 49 50
000
ASUS44 KCRP 291410
HRRCRP

SOUTH TEXAS REGIONAL WEATHER ROUNDUP
NATIONAL WEATHER SERVICE CORPUS CHRISTI TX
900 AM CDT SUN MAR 29 2015


TXZ229>244-291500-
...CORPUS CHRISTI AREA OBSERVATIONS...

CITY           SKY/WX    TMP DP  RH WIND       PRES   REMARKS
CORPUS CHRISTI SUNNY     65  61  87 S13       30.12R
NAS CORPUS CHR SUNNY     68  64  87 S13G22    30.13R
ROCKPORT       SUNNY     70  61  73 S10G20    30.13R
KINGSVILLE NAS SUNNY     66  64  93 S13       30.12R
ALICE          SUNNY     62  61  96 S8        30.11R
FALFURRIAS     SUNNY     64  61  91 SE7       30.11R
$$

...VICTORIA AREA OBSERVATIONS...

CITY           SKY/WX    TMP DP  RH WIND       PRES   REMARKS
VICTORIA       SUNNY     65  63  93 S10       30.15R
BEEVILLE       FAIR      62  62 100 S8        30.12R
PLEASANTON     FOG       56  56  97 CALM      30.12R VSB 3/4
SAN ANTONIO    PTSUNNY   61  58  90 S5        30.12R
$$

...LAREDO AREA OBSERVATIONS...

CITY           SKY/WX    TMP DP  RH WIND       PRES   REMARKS
LAREDO         SUNNY     64  57  78 SE13      30.09R
COTULLA        SUNNY     62  56  80 SE10      30.09R
DEL RIO        SUNNY     59  48  67 E10       30.06R
MCALLEN        SUNNY     67  61  81 S14       30.11R
HEBBRONVILLE   NOT AVBL
$$

...OTHER TEXAS OBSERVATIONS...

CITY           SKY/WX    TMP DP  RH WIND       PRES   REMARKS
BROWNSVILLE    SUNNY     70  65  84 S15       30.13R
HOUSTON        PTSUNNY   66  63  90 S6        30.16R
COL. STATION   CLOUDY    62  59  90 S7        30.13R
AUSTIN         CLOUDY    60  58  92 S15G23    30.10S
WACO           SUNNY     59  53  80 S16       30.07R
FORT WORTH     SUNNY     59  50  72 S9        30.04R
WICHITA FALLS  SUNNY     58  47  66 SE9       29.96R
LUBBOCK        SUNNY     53  31  42 W10       30.01R
EL PASO        SUNNY     54  15  21 CALM      30.16R
$$

...MARINE OBSERVATIONS...

STATION/POSITION TIME  SKY/WX   TEMP    WIND        PRES    VSBY  WAVE   SWELL
                                AIR SEA DIR/SP/G                  HT/PER HT/PER
                 (UTC)          (F)     (DEG/KT/KT) (MB)    (MI)  (FT/S) (FT/S)
PORT ARANSAS     1400            67 66  170/ 13/ 14 1021.1R
BUOY 90 E PORT A 1400            71 69  180/ 14/ 17 1021.7R         5/ 6
BUOY 45 SE BAFFI 1400            70 70  170/ 16/ 19 1019.8R         4/ 6
BUOY 200 E PT IS 1400            73 72  170/ 14/ 17 1023.0R         3/ 5
BUOY 15 E GALVES 1400            66 66  130/  8/ 10 1022.0R         2/ 5   2/ 5
$$



USA.gov is the U.S. government's official web portal to all federal, state and local government web resources and services.